Hatteras, NC

4:44 PM EDT on September 18, 2019 (GMT -0400)
Mitchell

Weather History for KHSE - August, 2019

Change the Weather History Date:

Monday, August 19, 2019

  Actual Average Record
Temperature  
Mean Temperature 83 °F 78 °F  
Max Temperature 88 °F 84 °F 91 °F (1987)
Min Temperature 78 °F 73 °F 65 °F (1972)
Degree Days  
Heating Degree Days 0 0  
Month to date heating degree days 0 0  
Since 1 June heating degree days 0 3  
Since 1 July heating degree days 0 0  
Cooling Degree Days 18 13  
Month to date cooling degree days 319 264  
Year to date cooling degree days 1619 1152  
Since 1 June cooling degree days 1237 1009  
Growing Degree Days 33 (Base 50)    
Moisture  
Dew Point 78 °F    
Average Humidity 91    
Maximum Humidity 100    
Minimum Humidity 75    
Precipitation  
Precipitation 0.00 in 0.22 in 3.51 in (1981)
Month to date precipitation 7.02 4.01  
Year to date precipitation 38.74 34.27  
Snow  
Snow 0.00 in - - ()
Month to date snowfall 0.0  
Since 1 July snowfall 0.0  
Snow Depth 0.00 in    
Sea Level Pressure  
Sea Level Pressure 30.05 in    
Wind  
Wind Speed 6 mph ()    
Max Wind Speed 13 mph    
Max Gust Speed 17 mph    
Visibility 6.3 miles    
Events      
T = Trace of Precipitation, MM = Missing Value Source: Averaged Metar Reports

Daily Weather History Graph

Daily Weather History Graph

Search for Another Location

Airport or City:

Astronomy

Aug. 19, 2019 Rise Set
Actual Time 6:25 AM EDT 7:46 PM EDT
Civil Twilight 5:58 AM EDT 8:13 PM EDT
Nautical Twilight 5:26 AM EDT 8:45 PM EDT
Astronomical Twilight 4:53 AM EDT 9:18 PM EDT
Moon 10:15 PM EDT (8/19) 9:57 AM EDT (8/19)
Length of Visible Light 14h 14m
Length of Day
13h 21m
Waning Gibbous, 85% of the Moon is Illuminated
Aug 19
Waning Gibbous
Aug 23
Last Quarter
Aug 30
New
Sep 5
First Quarter
Sep 14
Full

Hourly Weather History & Observations

Time (EDT) Temp. Heat Index Dew Point Humidity Pressure Visibility Wind Dir Wind Speed Gust Speed Precip Events Conditions
12:51 AM 79.0 °F - 77.0 °F 94% 30.02 in 6.0 mi WSW 5.8 mph - N/A   Clear
1:51 AM 79.0 °F - 78.1 °F 97% 30.02 in 6.0 mi WSW 4.6 mph - N/A   Overcast
2:51 AM 79.0 °F - 78.1 °F 97% 30.02 in 6.0 mi WSW 6.9 mph - N/A   Mostly Cloudy
3:46 AM 78.8 °F - 77.0 °F 94% 30.01 in 3.0 mi WSW 4.6 mph - N/A   Partly Cloudy
3:51 AM 79.0 °F - 77.0 °F 94% 30.01 in 3.0 mi WSW 4.6 mph - N/A   Partly Cloudy
4:51 AM 79.0 °F - 77.0 °F 94% 30.02 in 5.0 mi Variable 4.6 mph - N/A   Mostly Cloudy
5:39 AM 79.0 °F - 78.1 °F 97% 30.03 in 4.0 mi WSW 4.6 mph - N/A   Mostly Cloudy
5:51 AM 79.0 °F - 78.1 °F 97% 30.04 in 4.0 mi Variable 3.5 mph - N/A   Overcast
6:29 AM 78.1 °F - 78.1 °F 100% 30.04 in 3.0 mi SW 5.8 mph - N/A   Scattered Clouds
6:37 AM 78.1 °F - 78.1 °F 100% 30.05 in 2.5 mi WSW 6.9 mph - N/A   Scattered Clouds
6:44 AM 79.0 °F - 78.1 °F 97% 30.05 in 3.0 mi WSW 4.6 mph - N/A   Mostly Cloudy
6:51 AM 78.1 °F - 78.1 °F 100% 30.05 in 2.5 mi WSW 5.8 mph - N/A   Mostly Cloudy
7:00 AM 79.0 °F - 78.1 °F 97% 30.06 in 2.5 mi Variable 4.6 mph - N/A   Scattered Clouds
7:10 AM 79.0 °F - 78.1 °F 97% 30.06 in 3.0 mi WSW 3.5 mph - N/A   Partly Cloudy
7:18 AM 79.0 °F - 78.1 °F 97% 30.06 in 2.0 mi WSW 4.6 mph - N/A   Partly Cloudy
7:49 AM 78.8 °F - 78.8 °F 100% 30.08 in 3.0 mi Variable 5.8 mph - N/A   Clear
7:51 AM 79.0 °F - 78.1 °F 97% 30.08 in 3.0 mi WSW 5.8 mph - N/A   Clear
8:51 AM 82.0 °F 91.6 °F 79.0 °F 90% 30.07 in 7.0 mi West 6.9 mph - N/A   Clear
9:35 AM 82.9 °F 93.8 °F 79.0 °F 88% 30.09 in 9.0 mi Variable 6.9 mph - N/A   Partly Cloudy
9:51 AM 81.0 °F 89.2 °F 79.0 °F 94% 30.09 in 5.0 mi WSW 6.9 mph - N/A   Scattered Clouds
10:51 AM 84.9 °F 97.5 °F 79.0 °F 82% 30.09 in 8.0 mi Variable 5.8 mph - N/A   Partly Cloudy
11:51 AM 84.0 °F 94.8 °F 78.1 °F 82% 30.08 in 8.0 mi SW 6.9 mph - N/A   Partly Cloudy
12:51 PM 82.9 °F 92.8 °F 78.1 °F 85% 30.07 in 10.0 mi SSW 6.9 mph - N/A   Clear
1:51 PM 87.1 °F 101.5 °F 79.0 °F 77% 30.07 in 10.0 mi Variable 6.9 mph - N/A   Clear
2:51 PM 86.0 °F 99.3 °F 79.0 °F 79% 30.06 in 10.0 mi SSW 9.2 mph - N/A   Clear
3:51 PM 86.0 °F 99.3 °F 79.0 °F 79% 30.05 in 10.0 mi SSW 11.5 mph - N/A   Clear
4:51 PM 86.0 °F 98.3 °F 78.1 °F 77% 30.05 in 10.0 mi SSW 10.4 mph - N/A   Clear
5:51 PM 84.9 °F 96.6 °F 78.1 °F 80% 30.04 in 10.0 mi SSW 8.1 mph - N/A   Clear
6:51 PM 82.9 °F 92.8 °F 78.1 °F 85% 30.04 in 9.0 mi SSW 9.2 mph - N/A   Clear
7:51 PM 82.0 °F 91.0 °F 78.1 °F 88% 30.05 in 9.0 mi SW 8.1 mph - N/A   Clear
8:51 PM 81.0 °F 88.6 °F 78.1 °F 91% 30.07 in 10.0 mi SW 10.4 mph - N/A   Clear
9:51 PM 81.0 °F 88.6 °F 78.1 °F 91% 30.08 in 10.0 mi WSW 10.4 mph - N/A   Clear
10:51 PM 81.0 °F 88.6 °F 78.1 °F 91% 30.08 in 10.0 mi SW 8.1 mph - N/A   Clear
11:51 PM 81.0 °F 88.6 °F 78.1 °F 91% 30.08 in 9.0 mi SW 8.1 mph - N/A   Clear